Retour au catalogue

SL-14 DEB

ActifPO
NORAD 27628·DEBRIS·🇷🇺 Russia

Lancé Aug 18, 1987 depuis Plesetsk Cosmodrome

Loading…

Prochains Passages (prochaines 24 heures)

TLE

FraisSource: Space-Track

Époque: Sep 14, 2026, 05:26 UTC

1 27628U 87068CK  26257.22669741  .00000196  00000-0  13584-3 0  9993
2 27628  82.5112  76.6599 0027034 134.4802 225.8580 13.94098421368475

Suivez SL-14 DEB en temps réel avec AllMySat

Download on the App Store